KC5L-11 Weather Reports


time (UTC)temp
F
wind
direction
speed
knots
gust
knots
rain 1hr
in
rain 24hr
in
rain mn
in
humidity
%
barometer
mb
20260510163712 86 359 6.1 0.0 0.00 0.00 0.00 1004.8
20260510162536 85 300 7.0 0.0 0.00 0.00 0.00 1004.8
20260510161400 85 359 4.3 0.0 0.00 0.00 0.00 1004.7
20260510161358 85 359 4.3 0.0 0.00 0.00 0.00 1004.7
20260510160222 85 8 2.6 0.0 0.00 0.00 0.00 1004.6
20260510155045 84 294 5.2 0.0 0.00 0.00 0.00 1004.5
20260510153908 85 293 5.2 0.0 0.00 0.00 0.00 1004.6
20260510152731 84 319 5.2 0.0 0.00 0.00 0.00 1004.5
20260510151554 84 359 2.6 0.0 0.00 0.00 0.00 1004.5
20260510150416 81 11 3.5 0.0 0.00 0.00 0.00 1004.4
20260510145240 81 52 3.5 0.0 0.00 0.00 0.00 1004.3
20260510144102 80 69 5.2 0.0 0.00 0.00 0.00 1004.2
20260510142926 79 6 4.3 0.0 0.00 0.00 0.00 1004.0
20260510141748 76 69 3.5 0.0 0.00 0.00 0.00 1004.0
20260510140611 75 24 0.0 0.0 0.00 0.00 0.00 1004.0
20260510135434 73 111 4.3 0.0 0.00 0.00 0.00 1003.8
20260510134257 73 84 0.0 0.0 0.00 0.00 0.00 1003.7
20260510133121 71 94 0.0 0.0 0.00 0.00 0.00 1003.6
20260510131943 71 39 2.6 0.0 0.00 0.00 0.00 1003.6
20260510130806 71 42 0.0 0.0 0.00 0.00 0.00 1003.4
20260510125629 70 35 4.3 0.0 0.00 0.00 0.00 1003.5
20260510124452 70 41 3.5 0.0 0.00 0.00 0.00 1003.4
20260510123316 70 32 4.3 0.0 0.00 0.00 0.00 1003.4
20260510122138 70 8 4.3 0.0 0.00 0.00 0.00 1003.3
20260510115824 70 52 3.5 0.0 0.00 0.00 0.00 1002.8
20260510114648 69 284 0.0 0.0 0.00 0.00 0.00 1002.9
20260510112335 68 284 0.0 0.0 0.00 0.00 0.02 1003.1
20260510111157 67 284 0.0 0.0 0.00 0.00 0.00 1003.3
20260510110020 67 284 0.0 0.0 0.00 0.00 0.00 1003.2
20260510102529 68 322 2.6 0.0 0.00 0.00 0.00 1002.9
20260510101352 68 323 3.5 0.0 0.00 0.00 0.00 1003.1
20260510100215 68 298 3.5 0.0 0.00 0.00 0.00 1003.0
20260510095038 69 323 4.3 0.0 0.00 0.00 0.00 1002.9
20260510093901 69 11 0.0 0.0 0.00 0.00 0.00 1002.8
20260510092724 69 46 2.6 0.0 0.00 0.00 0.00 1002.7
20260510091547 69 20 4.3 0.0 0.00 0.00 0.00 1002.6
20260510090411 69 14 2.6 0.0 0.00 0.00 0.00 1002.5
20260510085233 69 37 2.6 0.0 0.00 0.00 0.00 1002.5
20260510084056 69 46 2.6 0.0 0.00 0.00 0.00 1002.3
20260510082919 70 46 5.2 0.0 0.00 0.00 0.00 1002.3
20260510081742 70 58 4.3 0.0 0.00 0.00 0.00 1002.4
20260510080605 70 38 4.3 0.0 0.00 0.00 0.00 1002.4
20260510075428 71 46 3.5 0.0 0.00 0.00 0.00 1002.5
20260510074251 71 27 6.1 0.0 0.00 0.00 0.00 1002.5
20260510073114 71 59 4.3 0.0 0.00 0.00 0.00 1002.5
20260510071937 71 63 2.6 0.0 0.00 0.00 0.00 1002.5
20260510070802 71 49 5.2 0.0 0.00 0.00 0.00 1002.6
20260510070800 71 49 5.2 0.0 0.00 0.00 0.00 1002.6
20260510065623 72 34 4.3 0.0 0.00 0.00 0.00 1002.5
20260510064448 72 53 74.7 0.0 0.00 0.00 0.00 1002.4
20260510064446 72 53 5.2 0.0 0.00 0.00 0.00 1002.4
20260510063309 73 68 2.6 0.0 0.00 0.00 0.00 1002.4
20260510062132 73 76 3.5 0.0 0.00 0.00 0.00 1002.6
20260510060956 73 51 5.2 0.0 0.00 0.00 0.00 1002.7
20260510055819 73 62 2.6 0.0 0.00 0.00 0.00 1002.6
20260510054641 74 39 4.3 0.0 0.00 0.00 0.00 1002.7
20260510053505 74 27 4.3 0.0 0.00 0.00 0.00 1002.8
20260510052327 74 55 4.3 0.0 0.00 0.00 0.00 1002.5
20260510051150 75 41 4.3 0.0 0.00 0.00 0.00 1002.5
20260510050013 75 58 2.6 0.0 0.00 0.00 0.00 1002.4
20260510044836 76 49 4.3 0.0 0.00 0.00 0.00 1002.2
20260510043700 77 60 2.6 0.0 0.00 0.00 0.00 1002.3
20260510042522 77 34 3.5 0.0 0.00 0.00 0.00 1002.3
20260510041345 78 55 4.3 0.0 0.00 0.00 0.00 1002.2
20260510040208 79 58 4.3 0.0 0.00 0.00 0.00 1002.2
20260510035031 79 44 4.3 0.0 0.00 0.00 0.00 1002.0
20260510033855 80 23 4.3 0.0 0.00 0.00 0.00 1001.9
20260510032719 80 37 4.3 0.0 0.00 0.00 0.00 1001.8
20260510031541 81 359 8.7 0.0 0.00 0.00 0.00 1001.7
20260510030405 82 30 8.7 0.0 0.00 0.00 0.00 1001.6
20260510025229 82 45 5.2 0.0 0.00 0.00 0.00 1001.4
20260510024050 83 31 7.0 0.0 0.00 0.00 0.00 1001.1
20260510022912 83 357 7.8 0.0 0.00 0.00 0.00 1000.9
20260510021735 83 330 0.0 0.0 0.00 0.00 0.00 1000.8
20260510020558 84 304 2.6 0.0 0.00 0.00 0.00 1000.7
20260510015421 84 311 0.0 0.0 0.00 0.00 0.00 1000.4
20260510014245 85 290 5.2 0.0 0.00 0.00 0.00 1000.4
20260510013108 85 342 0.0 0.0 0.00 0.00 0.00 1000.2
20260510011931 85 342 0.0 0.0 0.00 0.00 0.00 1000.0
20260510010754 86 342 0.0 0.0 0.00 0.00 0.00 999.8
20260510005617 87 342 0.0 0.0 0.00 0.00 0.00 999.6
20260510004440 88 342 0.0 0.0 0.00 0.00 0.00 999.3
20260510003304 89 342 0.0 0.0 0.00 0.00 0.00 999.3
20260510002126 89 356 0.0 0.0 0.00 0.00 0.00 999.3
20260510000950 90 37 2.6 0.0 0.00 0.00 0.00 999.4
20260509235813 90 280 0.0 0.0 0.00 0.00 0.00 999.7
20260509234635 90 280 0.0 0.0 0.00 0.00 0.00 999.8
20260509233458 89 340 4.3 0.0 0.00 0.00 0.00 999.8
20260509232321 90 11 3.5 0.0 0.00 0.00 0.00 999.9
20260509231144 92 243 0.0 0.0 0.00 0.00 0.00 999.8
20260509230007 93 243 0.0 0.0 0.00 0.00 0.00 999.8
20260509224830 94 179 0.0 0.0 0.00 0.00 0.00 999.8
20260509223653 95 283 0.0 0.0 0.00 0.00 0.00 999.8
20260509222516 96 214 0.0 0.0 0.00 0.00 0.00 999.7
20260509221339 96 300 0.0 0.0 0.00 0.00 0.00 999.8
20260509220202 95 277 0.0 0.0 0.00 0.00 0.00 999.7
20260509215025 96 127 0.0 0.0 0.00 0.00 0.00 999.7
20260509213848 96 70 2.6 0.0 0.00 0.00 0.00 999.8
20260509212711 96 205 0.0 0.0 0.00 0.00 0.00 999.9
20260509211534 93 212 0.0 0.0 0.00 0.00 0.00 999.9
20260509210357 93 288 0.0 0.0 0.00 0.00 0.00 1000.2
20260509205221 94 124 4.3 0.0 0.00 0.00 0.00 1000.3
20260509204043 92 187 1.7 0.0 0.00 0.00 0.00 1000.4
20260509202906 92 173 2.6 0.0 0.00 0.00 0.00 1000.7
20260509201729 94 173 0.0 0.0 0.00 0.00 0.00 1000.9
20260509200552 94 208 2.6 0.0 0.00 0.00 0.00 1001.0
20260509195415 93 107 5.2 0.0 0.00 0.00 0.00 1001.2
20260509194238 91 62 1.7 0.0 0.00 0.00 0.00 1001.2
20260509193102 91 245 0.0 0.0 0.00 0.00 0.00 1001.4
20260509191924 90 83 2.6 0.0 0.00 0.00 0.00 1001.6
20260509190747 91 87 4.3 0.0 0.00 0.00 0.00 1001.8
20260509185611 90 162 6.1 0.0 0.00 0.00 0.00 1001.8
20260509184433 90 70 0.0 0.0 0.00 0.00 0.00 1001.9
20260509183257 90 131 5.2 0.0 0.00 0.00 0.00 1002.1
20260509182120 90 31 2.6 0.0 0.00 0.00 0.00 1002.2
20260509180942 91 113 4.3 0.0 0.00 0.00 0.00 1002.5
20260509175805 91 162 3.5 0.0 0.00 0.00 0.00 1002.8
20260509174628 90 105 0.0 0.0 0.00 0.00 0.00 1002.8
20260509173451 90 77 2.6 0.0 0.00 0.00 0.00 1002.7
20260509172314 89 194 5.2 0.0 0.00 0.00 0.00 1002.8
20260509171137 89 134 4.3 0.0 0.00 0.00 0.00 1002.7
20260509170001 90 129 3.5 0.0 0.00 0.00 0.00 1002.8
20260509164826 88 105 3.5 0.0 0.00 0.00 0.00 1003.0